Location: Arrakis Observatory
(44.1122°N, 95.7153°W)
Time: 14:51:25
(UTC-06:00)

Iridium 35 - Visible Passes

Search period start: 20 December 2014 00:00
Search period end: 30 December 2014 00:00
Orbit: 776 x 779 km, 86.4° (Epoch: 20 December)

Date Brightness Start Highest point End Pass type
(mag) Time Alt. Az. Time Alt. Az. Time Alt. Az.
20 Dec 6.2 17:40:56 10° SSW 17:45:56 46° W 17:50:58 10° N visible
21 Dec 8.1 18:52:54 10° W 18:53:54 11° WNW 18:54:54 10° WNW visible
22 Dec 7.6 18:16:17 10° WSW 18:19:56 19° WNW 18:23:36 10° NNW visible
23 Dec 6.8 17:41:27 10° SW 17:46:07 33° W 17:50:48 10° NNW visible
25 Dec 7.8 18:17:44 10° W 18:20:15 14° WNW 18:22:47 10° NW visible
26 Dec 7.3 17:42:12 10° SW 17:46:20 24° WNW 17:50:30 10° NNW visible
29 Dec 7.6 17:43:16 10° WSW 17:46:36 17° WNW 17:49:57 10° NNW visible
